WX4MMM Weather Reports


time (UTC)temp
C
wind
direction
speed
KPH
gust
KPH
rain 1hr
cm
rain 24hr
cm
rain mn
cm
humidity
%
barometer
mb
20260508030004 12 152 1.6 1.6 0.00 1.96 1.47 96 1012.7
20260508025504 12 137 1.6 3.2 0.00 1.96 1.47 96 1012.7
20260508024507 12 26 0.0 1.6 0.00 1.96 1.47 96 1012.4
20260508024004 12 81 0.0 0.0 0.00 1.96 1.47 96 1012.3
20260508023003 12 97 0.0 1.6 0.00 1.96 1.47 96 1012.3
20260508022504 12 162 1.6 3.2 0.00 1.96 1.47 96 1012.2
20260508022004 12 72 1.6 1.6 0.00 1.96 1.47 96 1012.1
20260508021504 12 164 0.0 0.0 0.00 1.96 1.47 96 1012.1
20260508020004 12 118 0.0 1.6 0.00 1.96 1.47 96 1012.1
20260508015503 12 137 0.0 1.6 0.00 1.96 1.47 96 1012.0
20260508015004 12 105 0.0 0.0 0.00 1.96 1.47 96 1011.9
20260508014504 12 105 0.0 0.0 0.00 1.96 1.47 96 1011.7
20260508014004 12 105 0.0 0.0 0.00 1.96 1.47 96 1011.5
20260508013503 12 105 0.0 1.6 0.00 1.96 1.47 96 1011.5
20260508012004 12 177 0.0 1.6 0.00 1.96 1.47 95 1011.5
20260508011507 12 81 0.0 0.0 0.00 1.96 1.47 95 1011.5
20260508011004 12 144 0.0 0.0 0.00 1.96 1.47 95 1011.6
20260508010012 12 33 1.6 3.2 0.00 1.96 1.47 95 1011.3
20260508005004 12 139 0.0 1.6 0.00 1.96 1.47 95 1011.2
20260508004504 12 147 0.0 3.2 0.00 1.96 1.47 95 1011.2
20260508004004 12 200 0.0 3.2 0.00 1.96 1.47 95 1011.0
20260508003503 12 12 1.6 3.2 0.00 1.96 1.47 95 1010.9
20260508002504 12 348 0.0 1.6 0.08 1.96 1.47 95 1010.9
20260508001503 12 116 0.0 1.6 0.08 1.96 1.47 95 1010.8
20260508001004 12 136 1.6 1.6 0.08 1.96 1.47 94 1011.0
20260508000503 12 132 0.0 1.6 0.08 1.96 1.47 94 1011.0
20260508000004 12 355 0.0 0.0 0.08 1.96 1.47 94 1011.0
20260507235503 12 355 0.0 3.2 0.08 1.96 1.47 94 1010.8
20260507235003 12 174 0.0 1.6 0.08 1.96 1.47 94 1010.7
20260507234503 12 0 1.6 1.6 0.08 1.96 1.47 94 1010.6
20260507234004 12 321 0.0 1.6 0.08 1.96 1.47 94 1010.7
20260507233503 12 291 0.0 1.6 0.08 1.96 1.47 94 1010.6
20260507233004 12 195 0.0 3.2 0.08 1.96 1.47 94 1010.4
20260507232504 12 309 1.6 3.2 0.00 1.85 1.40 94 1010.1
20260507232004 12 28 1.6 3.2 0.00 1.85 1.40 94 1010.0
20260507231504 12 167 1.6 3.2 0.00 1.85 1.40 94 1009.9
20260507231004 12 283 0.0 1.6 0.00 1.85 1.40 94 1009.9
20260507230504 12 190 1.6 4.8 0.00 1.85 1.40 94 1009.8
20260507230003 12 210 0.0 3.2 0.00 1.85 1.40 94 1009.9
20260507225504 12 187 3.2 8.0 0.00 1.85 1.40 93 1010.0
20260507225003 12 178 3.2 8.0 0.00 1.85 1.40 93 1009.9
20260507224504 12 0 1.6 3.2 0.00 1.85 1.40 94 1009.9
20260507224004 12 125 1.6 4.8 0.00 1.85 1.40 94 1009.9
20260507223504 12 52 1.6 4.8 0.00 1.85 1.40 94 1009.8
20260507223003 12 109 1.6 4.8 0.00 1.85 1.40 94 1009.7
20260507222503 12 53 1.6 3.2 0.00 1.85 1.40 94 1009.9
20260507221504 12 31 0.0 1.6 0.00 1.88 1.40 94 1010.3
20260507220504 13 51 1.6 3.2 0.00 1.88 1.40 94 1010.4
20260507220004 13 203 0.0 3.2 0.00 1.88 1.40 94 1010.2
20260507215503 13 278 1.6 4.8 0.00 1.88 1.40 94 1010.0
20260507215004 13 127 0.0 3.2 0.00 1.88 1.40 94 1009.9
20260507214504 12 179 0.0 3.2 0.00 1.88 1.40 94 1009.8
20260507214004 12 52 1.6 3.2 0.00 1.88 1.40 95 1009.7
20260507213503 12 346 1.6 3.2 0.00 1.88 1.40 94 1009.9
20260507212504 12 356 1.6 3.2 0.00 1.88 1.40 94 1009.8
20260507212004 12 203 1.6 3.2 0.00 1.88 1.40 94 1009.7
20260507211504 12 50 1.6 3.2 0.00 1.91 1.40 94 1009.6
20260507211005 12 339 1.6 3.2 0.00 1.91 1.40 94 1009.7
20260507210504 12 77 1.6 3.2 0.00 1.91 1.40 94 1009.9
20260507210004 12 254 3.2 4.8 0.03 1.93 1.40 94 1009.9
20260507205504 12 125 0.0 1.6 0.03 1.96 1.40 95 1009.7
20260507204504 12 81 0.0 3.2 0.03 2.06 1.40 95 1009.4
20260507204005 13 44 1.6 1.6 0.03 2.08 1.40 95 1009.4
20260507184003 13 80 1.6 4.8 0.03 2.08 1.40 95 1009.5
20260507183503 13 55 0.0 4.8 0.03 2.11 1.40 95 1009.3
20260507183003 13 137 1.6 4.8 0.03 2.11 1.40 95 1009.2
20260507182504 13 296 1.6 4.8 0.03 2.11 1.40 95 1009.0
20260507182003 13 286 1.6 4.8 0.03 2.11 1.40 95 1008.7
20260507181504 13 346 1.6 4.8 0.03 2.11 1.40 95 1009.0
20260507181003 13 351 1.6 3.2 0.03 2.11 1.40 95 1009.1
20260507180503 13 102 3.2 4.8 0.05 2.11 1.40 95 1009.2
20260507180004 14 274 3.2 8.0 0.03 2.08 1.37 95 1009.1
20260507175503 14 16 3.2 3.2 0.03 2.08 1.37 95 1008.6
20260507175004 14 11 3.2 9.7 0.08 2.08 1.37 95 1008.8
20260507174503 14 299 1.6 3.2 0.08 2.08 1.37 95 1010.0
20260507173503 14 333 1.6 3.2 0.08 2.08 1.35 95 1009.7
20260507173004 15 23 1.6 3.2 0.08 2.08 1.37 95 1009.2
20260507172003 15 295 1.6 4.8 0.10 2.08 1.37 94 1008.9
20260507170004 15 119 1.6 4.8 0.13 2.08 1.35 94 1008.2
20260507165503 16 23 3.2 3.2 0.10 2.06 1.35 94 1008.4
20260507165004 16 58 1.6 3.2 0.08 2.03 1.30 93 1008.7
20260507164504 17 297 1.6 3.2 0.10 2.03 1.30 93 1008.4
20260507164004 17 111 3.2 4.8 0.10 2.03 1.30 93 1008.6
20260507163503 18 2 1.6 8.0 0.10 2.03 1.30 94 1008.8
20260507162504 19 211 0.0 0.0 0.23 2.03 1.27 95 1009.0
20260507162003 19 231 0.0 3.2 0.20 2.01 1.24 95 1009.2
20260507160504 19 151 0.0 1.6 0.20 1.98 1.24 96 1009.0
20260507160004 19 256 1.6 3.2 0.18 1.98 1.22 96 1009.4
20260507155003 19 33 1.6 1.6 0.18 1.98 1.22 96 1009.1
20260507153005 19 165 0.0 1.6 0.10 1.80 1.04 96 1008.8
20260507152004 19 352 0.0 1.6 0.13 1.80 1.04 96 1009.0
20260507151504 19 319 0.0 1.6 0.15 1.80 1.04 96 1009.0
20260507151004 19 176 0.0 0.0 0.15 1.80 1.04 96 1009.0
20260507150503 19 176 0.0 0.0 0.15 1.80 1.04 96 1009.0
20260507150003 19 176 0.0 1.6 0.15 1.80 1.04 96 1009.0
20260507145503 19 127 0.0 0.0 0.15 1.80 1.04 96 1008.9
20260507144503 19 177 0.0 1.6 0.20 1.80 1.04 96 1009.2
20260507144003 19 159 0.0 1.6 0.15 1.75 0.99 96 1009.1
20260507143503 19 157 1.6 1.6 0.13 1.73 0.97 96 1009.0
20260507143003 19 330 0.0 1.6 0.10 1.70 0.94 96 1009.0
20260507142504 19 143 1.6 3.2 0.10 1.68 0.94 97 1009.0
20260507142004 19 164 1.6 3.2 0.08 1.68 0.91 97 1009.1
20260507141503 19 168 0.0 3.2 0.05 1.65 0.91 97 1009.2
20260507140503 19 208 1.6 3.2 0.08 1.63 0.89 97 1009.0
20260507140003 19 118 1.6 3.2 0.08 1.63 0.89 97 1009.1
20260507135503 19 165 1.6 3.2 0.08 1.63 0.89 97 1009.2
20260507134504 19 167 1.6 4.8 0.08 1.57 0.84 97 1009.6
20260507134003 19 146 1.6 3.2 0.08 1.57 0.84 97 1009.5
20260507133504 19 169 3.2 3.2 0.08 1.57 0.84 97 1009.6
20260507133003 18 170 1.6 3.2 0.08 1.57 0.84 97 1009.5
20260507131503 18 168 0.0 4.8 0.10 1.57 0.84 97 1009.3
20260507130503 18 200 1.6 3.2 0.08 1.55 0.81 97 1009.4
20260507125003 18 319 1.6 1.6 0.03 1.50 0.79 97 1009.7
20260507124504 18 161 1.6 3.2 0.03 1.50 0.79 97 1009.7
20260507124003 18 198 1.6 3.2 0.03 1.50 0.79 97 1009.6
20260507123503 18 74 0.0 0.0 0.03 1.50 0.76 97 1009.6
20260507123004 18 74 0.0 0.0 0.03 1.50 0.76 97 1009.6
20260507122503 18 74 0.0 1.6 0.03 1.50 0.76 97 1009.6
20260507122004 18 98 0.0 0.0 0.03 1.47 0.76 97 1009.5
20260507121504 18 97 0.0 1.6 0.03 1.47 0.76 96 1009.5
20260507121004 18 130 0.0 1.6 0.03 1.47 0.76 97 1009.6
20260507120004 18 79 0.0 0.0 0.03 1.47 0.76 96 1009.9
20260507115504 18 79 0.0 1.6 0.03 1.47 0.76 97 1009.8
20260507115003 18 46 1.6 3.2 0.03 1.47 0.76 96 1009.5
20260507114504 18 92 0.0 1.6 0.03 1.47 0.76 97 1009.9
20260507113504 18 211 0.0 1.6 0.00 1.47 0.74 96 1010.0
20260507112504 18 119 0.0 1.6 0.00 1.47 0.74 96 1010.0
20260507112003 18 278 0.0 3.2 0.00 1.47 0.74 96 1010.0
20260507111504 18 226 0.0 1.6 0.00 1.47 0.74 96 1010.0
20260507110503 18 222 0.0 1.6 0.00 1.47 0.74 96 1010.0
20260507110004 18 344 0.0 0.0 0.00 1.47 0.74 96 1009.7
20260507105504 18 273 0.0 1.6 0.00 1.47 0.74 96 1009.6
20260507105004 18 175 0.0 1.6 0.00 1.47 0.74 96 1009.6
20260507104504 18 27 0.0 1.6 0.00 1.47 0.74 96 1009.5
20260507104003 18 70 1.6 3.2 0.00 1.47 0.74 96 1009.5
20260507103504 17 354 0.0 1.6 0.00 1.47 0.74 96 1009.6
20260507103004 17 231 0.0 1.6 0.00 1.47 0.74 96 1009.6
20260507102004 17 268 1.6 1.6 0.00 1.47 0.74 96 1009.5
20260507101503 17 87 1.6 1.6 0.00 1.47 0.74 96 1009.5
20260507100004 17 262 0.0 1.6 0.00 1.47 0.74 96 1009.5
20260507095503 17 148 0.0 3.2 0.00 1.47 0.74 96 1009.5
20260507095003 17 329 0.0 1.6 0.00 1.47 0.74 96 1009.5
20260507094004 17 113 0.0 1.6 0.00 1.47 0.74 96 1009.7
20260507093503 17 329 0.0 1.6 0.00 1.47 0.74 96 1009.6
20260507093004 17 132 1.6 1.6 0.00 1.47 0.74 96 1009.6
20260507092503 17 81 0.0 0.0 0.00 1.47 0.74 96 1009.6
20260507092004 17 81 1.6 1.6 0.00 1.47 0.74 96 1009.5
20260507091004 17 196 0.0 3.2 0.00 1.47 0.74 96 1009.5
20260507090503 17 231 0.0 0.0 0.00 1.47 0.74 96 1009.7
20260507090005 17 231 0.0 0.0 0.00 1.47 0.74 96 1009.8
20260507085504 17 231 0.0 1.6 0.00 1.47 0.74 96 1009.8
20260507085003 17 308 0.0 0.0 0.00 1.47 0.74 96 1009.9
20260507084504 17 148 0.0 1.6 0.00 1.47 0.74 96 1009.9
20260507083503 17 50 0.0 1.6 0.00 1.47 0.74 96 1009.9
20260507083004 17 150 1.6 1.6 0.00 1.47 0.74 96 1010.1
20260507082504 17 164 1.6 3.2 0.00 1.47 0.74 96 1010.4
20260507082004 17 296 1.6 3.2 0.00 1.47 0.74 96 1010.4
20260507081504 17 211 1.6 1.6 0.00 1.47 0.74 96 1010.4
20260507081004 17 170 0.0 1.6 0.00 1.47 0.74 96 1010.2
20260507080503 17 167 0.0 1.6 0.00 1.47 0.74 96 1010.1
20260507075503 17 55 0.0 1.6 0.00 1.47 0.74 96 1010.0
20260507075003 17 68 0.0 1.6 0.00 1.47 0.74 96 1010.1
20260507074504 17 43 0.0 1.6 0.00 1.47 0.74 96 1010.3
20260507074004 17 158 0.0 1.6 0.00 1.47 0.74 96 1010.5
20260507073004 17 130 0.0 3.2 0.00 1.47 0.74 96 1010.5
20260507071504 17 311 0.0 0.0 0.10 1.47 0.74 96 1010.7
20260507070504 17 287 0.0 0.0 0.10 1.47 0.74 96 1010.9
20260507070008 17 287 0.0 0.0 0.08 1.47 0.74 96 1010.7
20260507065504 18 287 0.0 0.0 0.08 1.47 0.74 96 1010.5
20260507065004 18 287 0.0 0.0 0.08 1.47 0.74 95 1010.8
20260507064503 18 287 0.0 0.0 0.08 1.47 0.74 95 1011.2
20260507064004 18 183 1.6 1.6 0.08 1.47 0.74 95 1011.3
20260507063003 18 294 0.0 0.0 0.10 1.47 0.74 95 1011.5
20260507062503 18 294 0.0 0.0 0.10 1.47 0.74 95 1011.4
20260507062004 18 294 0.0 0.0 0.23 1.35 0.64 95 1011.2
20260507061504 18 294 0.0 1.6 0.25 1.35 0.64 95 1010.9
20260507060503 18 161 1.6 3.2 0.38 1.35 0.64 95 1011.4
20260507060004 18 206 1.6 3.2 0.43 1.35 0.66 95 1011.4
20260507055503 18 101 0.0 0.0 0.43 1.35 0.66 95 1011.4
20260507055004 18 101 0.0 1.6 0.51 1.35 0.66 95 1011.2
20260507054503 18 143 1.6 3.2 0.56 1.35 0.66 94 1011.4
20260507053004 18 122 1.6 3.2 0.61 1.35 0.66 94 1011.4
20260507052503 18 344 1.6 3.2 0.64 1.32 0.64 94 1011.3
20260507052004 18 134 1.6 3.2 0.41 1.09 0.41 94 1010.9
20260507051503 18 122 1.6 3.2 0.38 1.07 0.38 94 1011.4
20260507051004 18 145 1.6 3.2 0.33 1.02 0.33 94 1011.8
20260507050503 18 157 1.6 3.2 0.25 0.94 0.25 93 1011.4
20260507050003 18 187 1.6 3.2 0.23 0.91 0.23 93 1011.2
20260507045504 18 165 1.6 3.2 0.56 0.91 0.23 93 1010.9
20260507044004 19 102 1.6 4.8 0.43 0.79 0.10 91 1012.6
20260507043504 19 159 1.6 3.2 0.43 0.76 0.08 90 1012.7
20260507042503 20 258 1.6 8.0 0.36 0.71 0.03 88 1013.0
20260507042004 19 268 3.2 8.0 0.38 0.69 0.00 88 1013.0
20260507041503 19 192 3.2 3.2 0.38 0.69 0.00 89 1013.0
20260507041003 19 163 3.2 3.2 0.41 0.69 0.00 92 1012.8
20260507040504 19 278 1.6 1.6 0.41 0.69 0.00 92 1012.5
20260507040004 19 168 1.6 3.2 0.08 0.36 0.00 91 1012.4
20260507035503 19 318 0.0 1.6 0.08 0.36 0.33 91 1012.2
20260507035004 19 241 0.0 0.0 0.08 0.36 0.30 90 1012.0
20260507034503 19 206 0.0 1.6 0.08 0.36 0.30 89 1011.7
20260507034004 19 165 0.0 1.6 0.08 0.36 0.30 88 1011.5
20260507033503 20 253 0.0 3.2 0.05 0.33 0.30 88 1011.5
20260507032504 20 182 1.6 3.2 0.05 0.33 0.30 86 1012.0
20260507032004 20 153 1.6 3.2 0.03 0.30 0.28 85 1012.0
20260507031004 20 182 0.0 3.2 0.00 0.28 0.25 85 1012.0
20260507030503 19 172 0.0 1.6 0.00 0.28 0.25 85 1011.7